Time,TemperatureF,DewpointF,PressureIn,WindDirection,WindDirectionDegrees,WindSpeedMPH,WindSpeedGustMPH,Humidity,HourlyPrecipIn,Conditions,Clouds,dailyrainin,SolarRadiationWatts/m^2,SoftwareType,DateUTC
2013-12-30 00:00:00,32.3,28.6,30.18,NNW,338,7.0,18.0,86,0.00,,SKC,0.00,0.00,VWS V15.00,2013-12-30 06:00:00,
2013-12-30 00:03:00,32.3,28.6,30.24,North,360,8.0,8.0,86,0.00,,,0.00,0,Wunderground v.1.15,2013-12-30 06:03:00,
2013-12-30 00:08:00,32.3,28.6,30.25,NW,320,7.0,12.0,86,0.00,,,0.00,,VWS V15.00,2013-12-30 06:08:00,
2013-12-30 00:13:00,32.3,28.6,30.25,WNW,302,4.0,11.0,86,0.00,,,0.00,,VWS V15.00,2013-12-30 06:13:00,
2013-12-30 00:15:00,32.3,28.6,30.18,NNW,338,4.0,15.0,86,0.00,,SKC,0.00,0.00,VWS V15.00,2013-12-30 06:15:00,
2013-12-30 00:18:00,32.3,28.6,30.24,NNW,329,0.0,1.0,86,0.00,,,0.00,,VWS V15.00,2013-12-30 06:18:00,
2013-12-30 00:23:00,32.3,28.6,30.24,NNW,348,11.0,14.0,86,0.00,,,0.00,,VWS V15.00,2013-12-30 06:23:00,
2013-12-30 00:28:00,32.2,28.5,30.24,NW,317,0.0,11.0,86,0.00,,,0.00,,VWS V15.00,2013-12-30 06:28:00,
2013-12-30 00:30:00,32.3,28.6,30.18,NNW,338,5.0,17.0,86,0.00,,SKC,0.00,0.00,VWS V15.00,2013-12-30 06:30:00,
2013-12-30 00:33:00,32.3,28.6,30.24,NNW,338,0.0,10.0,86,0.00,,,0.00,,VWS V15.00,2013-12-30 06:33:00,
2013-12-30 00:38:00,32.3,28.6,30.24,NW,319,7.0,10.0,86,0.00,,,0.00,,VWS V15.00,2013-12-30 06:38:00,
2013-12-30 00:43:00,32.2,28.5,30.24,NNW,341,11.0,11.0,86,0.00,,,0.00,,VWS V15.00,2013-12-30 06:43:00,
2013-12-30 00:45:00,32.3,28.6,30.17,NNW,338,6.0,17.0,86,0.00,,SKC,0.00,0.00,VWS V15.00,2013-12-30 06:45:00,
2013-12-30 00:48:00,32.3,28.6,30.24,North,349,9.0,9.0,86,0.00,,,0.00,,VWS V15.00,2013-12-30 06:48:00,
2013-12-30 00:53:00,32.3,28.6,30.24,NW,320,0.0,11.0,86,0.00,,,0.00,,VWS V15.00,2013-12-30 06:53:00,
2013-12-30 00:58:00,32.4,28.7,30.24,NW,326,8.0,10.0,86,0.00,,,0.00,,VWS V15.00,2013-12-30 06:58:00,
2013-12-30 01:00:00,32.3,28.3,30.18,NNW,338,3.0,12.0,85,0.00,,SKC,0.00,0.00,VWS V15.00,2013-12-30 07:00:00,
2013-12-30 01:03:00,32.3,28.3,30.24,WNW,298,0.0,9.0,85,0.00,,,0.00,,VWS V15.00,2013-12-30 07:03:00,
2013-12-30 01:08:00,32.4,28.4,30.24,NNW,346,0.0,12.0,85,0.00,,,0.00,,VWS V15.00,2013-12-30 07:08:00,
2013-12-30 01:13:00,32.4,28.4,30.24,North,360,7.0,11.0,85,0.00,,,0.00,,VWS V15.00,2013-12-30 07:13:00,
2013-12-30 01:15:00,32.4,28.4,30.18,NNW,338,4.0,15.0,85,0.00,,SKC,0.00,0.00,VWS V15.00,2013-12-30 07:15:00,
2013-12-30 01:18:00,32.4,28.4,30.24,NW,315,0.0,9.0,85,0.00,,,0.00,,VWS V15.00,2013-12-30 07:18:00,
2013-12-30 01:23:00,32.4,28.1,30.24,NNW,339,7.0,12.0,84,0.00,,,0.00,,VWS V15.00,2013-12-30 07:23:00,
2013-12-30 01:28:00,32.4,28.1,30.24,NW,325,8.0,13.0,84,0.00,,,0.00,,VWS V15.00,2013-12-30 07:28:00,
2013-12-30 01:30:00,32.4,28.1,30.17,NNW,338,6.0,18.0,84,0.00,,SKC,0.00,0.00,VWS V15.00,2013-12-30 07:30:00,
2013-12-30 01:33:00,32.5,28.2,30.23,North,11,13.0,13.0,84,0.00,,,0.00,,VWS V15.00,2013-12-30 07:33:00,
2013-12-30 01:38:00,32.5,27.9,30.23,NW,321,0.0,8.0,83,0.00,,,0.00,,VWS V15.00,2013-12-30 07:38:00,
2013-12-30 01:43:00,32.5,27.9,30.23,North,355,3.0,13.0,83,0.00,,,0.00,,VWS V15.00,2013-12-30 07:43:00,
2013-12-30 01:45:00,32.5,27.9,30.18,NNW,338,7.0,19.0,83,0.00,,SKC,0.00,0.00,VWS V15.00,2013-12-30 07:45:00,
2013-12-30 01:48:00,32.5,27.9,30.24,NNW,329,6.0,17.0,83,0.00,,,0.00,,VWS V15.00,2013-12-30 07:48:00,
2013-12-30 01:53:00,32.6,28.0,30.24,NW,325,1.0,6.0,83,0.00,,,0.00,,VWS V15.00,2013-12-30 07:53:00,
2013-12-30 01:58:00,32.6,28.0,30.24,NNW,340,6.0,12.0,83,0.00,,,0.00,,VWS V15.00,2013-12-30 07:58:00,
2013-12-30 02:00:00,32.6,27.7,30.18,NNW,338,5.0,17.0,82,0.00,,SKC,0.00,0.00,VWS V15.00,2013-12-30 08:00:00,
2013-12-30 02:03:00,32.6,27.7,30.24,NNW,327,7.0,13.0,82,0.00,,,0.00,0,Wunderground v.1.15,2013-12-30 08:03:00,
2013-12-30 02:08:00,32.6,27.7,30.24,NNW,342,13.0,14.0,82,0.00,,,0.00,0,Wunderground v.1.15,2013-12-30 08:08:00,
2013-12-30 02:13:00,32.6,27.7,30.24,NNW,336,8.0,13.0,82,0.00,,,0.00,0,Wunderground v.1.15,2013-12-30 08:13:00,
2013-12-30 02:15:00,32.6,27.7,30.17,NNW,338,7.0,17.0,82,0.00,,SKC,0.00,0.00,VWS V15.00,2013-12-30 08:15:00,
2013-12-30 02:18:00,32.6,27.7,30.23,North,355,9.0,15.0,82,0.00,,,0.00,0,Wunderground v.1.15,2013-12-30 08:18:00,
2013-12-30 02:23:00,32.6,27.7,30.24,NNW,330,7.0,15.0,82,0.00,,,0.00,,VWS V15.00,2013-12-30 08:23:00,
2013-12-30 02:28:00,32.6,27.4,30.24,NNW,340,0.0,14.0,81,0.00,,,0.00,,VWS V15.00,2013-12-30 08:28:00,
2013-12-30 02:30:00,32.6,27.4,30.17,NNW,338,7.0,19.0,81,0.00,,SKC,0.00,0.00,VWS V15.00,2013-12-30 08:30:00,
2013-12-30 02:33:00,32.7,27.5,30.23,North,349,0.0,11.0,81,0.00,,,0.00,0,Wunderground v.1.15,2013-12-30 08:33:00,
2013-12-30 02:38:00,32.7,27.2,30.24,NNW,348,0.0,0.0,80,0.00,,,0.00,,VWS V15.00,2013-12-30 08:38:00,
2013-12-30 02:43:00,32.8,27.3,30.24,NNW,340,4.0,7.0,80,0.00,,,0.00,,VWS V15.00,2013-12-30 08:43:00,
2013-12-30 02:45:00,32.7,27.2,30.17,NNW,338,3.0,14.0,80,0.00,,SKC,0.00,0.00,VWS V15.00,2013-12-30 08:45:00,
2013-12-30 02:48:00,32.8,27.3,30.22,NNW,341,2.0,9.0,80,0.00,,,0.00,0,Wunderground v.1.15,2013-12-30 08:48:00,
2013-12-30 02:53:00,32.9,27.4,30.22,North,355,0.0,2.0,80,0.00,,,0.00,0,Wunderground v.1.15,2013-12-30 08:53:00,
2013-12-30 02:58:00,32.9,27.1,30.23,NNW,334,0.0,5.0,79,0.00,,,0.00,,VWS V15.00,2013-12-30 08:58:00,
2013-12-30 03:00:00,32.9,27.1,30.17,NNW,338,3.0,12.0,79,0.00,,SKC,0.00,0.00,VWS V15.00,2013-12-30 09:00:00,
2013-12-30 03:03:00,33.0,27.2,30.23,North,350,0.0,7.0,79,0.00,,,0.00,,VWS V15.00,2013-12-30 09:03:00,
2013-12-30 03:08:00,33.0,27.2,30.23,NNW,339,5.0,7.0,79,0.00,,,0.00,,VWS V15.00,2013-12-30 09:08:00,
2013-12-30 03:13:00,33.0,27.2,30.22,North,355,8.0,9.0,79,0.00,,,0.00,0,Wunderground v.1.15,2013-12-30 09:13:00,
2013-12-30 03:15:00,33.0,26.9,30.16,NNW,338,3.0,13.0,78,0.00,,SKC,0.00,0.00,VWS V15.00,2013-12-30 09:15:00,
2013-12-30 03:18:00,33.0,26.9,30.22,North,5,7.0,12.0,78,0.00,,,0.00,0,Wunderground v.1.15,2013-12-30 09:18:00,
2013-12-30 03:23:00,33.0,26.9,30.22,North,9,0.0,10.0,78,0.00,,,0.00,,VWS V15.00,2013-12-30 09:23:00,
2013-12-30 03:28:00,33.1,27.0,30.22,NNW,348,6.0,10.0,78,0.00,,,0.00,0,Wunderground v.1.15,2013-12-30 09:28:00,
2013-12-30 03:30:00,33.1,27.0,30.16,NNW,338,3.0,14.0,78,0.00,,SKC,0.00,0.00,VWS V15.00,2013-12-30 09:30:00,
2013-12-30 03:33:00,33.1,27.0,30.22,NNW,331,0.0,9.0,78,0.00,,,0.00,0,Wunderground v.1.15,2013-12-30 09:33:00,
2013-12-30 03:38:00,33.2,27.1,30.22,NW,323,0.0,10.0,78,0.00,,,0.00,0,Wunderground v.1.15,2013-12-30 09:38:00,
2013-12-30 03:43:00,33.2,26.8,30.22,North,355,5.0,12.0,77,0.00,,,0.00,0,Wunderground v.1.15,2013-12-30 09:43:00,
2013-12-30 03:45:00,33.2,26.8,30.16,NW,315,2.0,13.0,77,0.00,,SKC,0.00,0.00,VWS V15.00,2013-12-30 09:45:00,
2013-12-30 03:48:00,33.2,26.8,30.23,NW,305,0.0,0.0,77,0.00,,,0.00,,VWS V15.00,2013-12-30 09:48:00,
2013-12-30 03:53:00,33.2,26.8,30.23,WNW,299,3.0,13.0,77,0.00,,,0.00,,VWS V15.00,2013-12-30 09:53:00,
2013-12-30 03:58:00,33.2,26.8,30.23,NNW,336,0.0,0.0,77,0.00,,,0.00,,VWS V15.00,2013-12-30 09:58:00,
2013-12-30 04:00:00,33.2,26.8,30.17,NNW,338,4.0,14.0,77,0.00,,SKC,0.00,0.00,VWS V15.00,2013-12-30 10:00:00,
2013-12-30 04:03:00,33.2,26.8,30.22,WNW,301,0.0,7.0,77,0.00,,,0.00,0,Wunderground v.1.15,2013-12-30 10:03:00,
2013-12-30 04:08:00,33.1,26.7,30.23,NNW,342,4.0,8.0,77,0.00,,,0.00,,VWS V15.00,2013-12-30 10:08:00,
2013-12-30 04:13:00,33.2,26.8,30.23,NNW,345,11.0,11.0,77,0.00,,,0.00,,VWS V15.00,2013-12-30 10:13:00,
2013-12-30 04:15:00,33.2,26.5,30.17,NNW,338,2.0,13.0,76,0.00,,SKC,0.00,0.00,VWS V15.00,2013-12-30 10:15:00,
2013-12-30 04:18:00,33.2,26.5,30.22,NNW,341,3.0,10.0,76,0.00,,,0.00,,VWS V15.00,2013-12-30 10:18:00,
2013-12-30 04:23:00,33.3,26.5,30.22,NNW,341,5.0,11.0,76,0.00,,,0.00,0,Wunderground v.1.15,2013-12-30 10:23:00,
2013-12-30 04:28:00,33.3,26.5,30.22,NNW,327,10.0,11.0,76,0.00,,,0.00,0,Wunderground v.1.15,2013-12-30 10:28:00,
2013-12-30 04:30:00,33.3,26.2,30.16,NNW,338,3.0,12.0,75,0.00,,SKC,0.00,0.00,VWS V15.00,2013-12-30 10:30:00,
2013-12-30 04:33:00,33.3,26.2,30.21,NNW,340,0.0,4.0,75,0.00,,,0.00,0,Wunderground v.1.15,2013-12-30 10:33:00,
2013-12-30 04:38:00,33.4,26.3,30.22,North,355,3.0,6.0,75,0.00,,,0.00,,VWS V15.00,2013-12-30 10:38:00,
2013-12-30 04:43:00,33.3,26.2,30.22,NNW,345,5.0,10.0,75,0.00,,,0.00,,VWS V15.00,2013-12-30 10:43:00,
2013-12-30 04:45:00,33.3,26.2,30.16,NNW,338,4.0,13.0,75,0.00,,SKC,0.00,0.00,VWS V15.00,2013-12-30 10:45:00,
2013-12-30 04:48:00,33.3,26.2,30.21,NW,323,0.0,12.0,75,0.00,,,0.00,0,Wunderground v.1.15,2013-12-30 10:48:00,
2013-12-30 04:53:00,33.4,26.3,30.21,NNW,346,0.0,5.0,75,0.00,,,0.00,0,Wunderground v.1.15,2013-12-30 10:53:00,
2013-12-30 04:58:00,33.4,26.3,30.22,NNW,348,0.0,0.0,75,0.00,,,0.00,,VWS V15.00,2013-12-30 10:58:00,
2013-12-30 05:00:00,33.4,26.3,30.16,NNW,338,1.0,13.0,75,0.00,,SKC,0.00,0.00,VWS V15.00,2013-12-30 11:00:00,
2013-12-30 05:03:00,33.4,26.3,30.22,NNW,330,0.0,10.0,75,0.00,,,0.00,,VWS V15.00,2013-12-30 11:03:00,
2013-12-30 05:08:00,33.4,26.3,30.21,NW,325,0.0,11.0,75,0.00,,,0.00,0,Wunderground v.1.15,2013-12-30 11:08:00,
2013-12-30 05:13:00,33.4,26.3,30.22,NW,326,0.0,0.0,75,0.00,,,0.00,,VWS V15.00,2013-12-30 11:13:00,
2013-12-30 05:15:00,33.4,26.3,30.16,NW,315,1.0,11.0,75,0.00,,SKC,0.00,0.00,VWS V15.00,2013-12-30 11:15:00,
2013-12-30 05:18:00,33.5,26.4,30.21,NNW,330,4.0,4.0,75,0.00,,,0.00,,VWS V15.00,2013-12-30 11:18:00,
2013-12-30 05:23:00,33.5,26.4,30.21,NNW,331,0.0,6.0,75,0.00,,,0.00,0,Wunderground v.1.15,2013-12-30 11:23:00,
2013-12-30 05:28:00,33.5,26.1,30.21,NNW,348,0.0,9.0,74,0.00,,,0.00,0,Wunderground v.1.15,2013-12-30 11:28:00,
2013-12-30 05:30:00,33.5,26.1,30.16,NNW,338,2.0,12.0,74,0.00,,SKC,0.00,0.00,VWS V15.00,2013-12-30 11:30:00,
2013-12-30 05:33:00,33.6,26.2,30.21,NNW,335,0.0,13.0,74,0.00,,,0.00,0,Wunderground v.1.15,2013-12-30 11:33:00,
2013-12-30 05:38:00,33.7,26.3,30.22,North,351,6.0,8.0,74,0.00,,,0.00,,VWS V15.00,2013-12-30 11:38:00,
2013-12-30 05:43:00,33.7,26.3,30.21,NNW,333,0.0,6.0,74,0.00,,,0.00,0,Wunderground v.1.15,2013-12-30 11:43:00,
2013-12-30 05:45:00,33.7,26.3,30.16,NNW,338,2.0,14.0,74,0.00,,SKC,0.00,0.00,VWS V15.00,2013-12-30 11:45:00,
2013-12-30 05:48:00,33.7,26.3,30.22,NNW,330,3.0,9.0,74,0.00,,,0.00,,VWS V15.00,2013-12-30 11:48:00,
2013-12-30 05:53:00,33.8,26.4,30.21,NNW,333,0.0,3.0,74,0.00,,,0.00,0,Wunderground v.1.15,2013-12-30 11:53:00,
2013-12-30 05:58:00,33.8,26.4,30.21,NW,318,0.0,8.0,74,0.00,,,0.00,0,Wunderground v.1.15,2013-12-30 11:58:00,
2013-12-30 06:00:00,33.8,26.1,30.17,NNW,338,2.0,11.0,73,0.00,,SKC,0.00,0.00,VWS V15.00,2013-12-30 12:00:00,
2013-12-30 06:03:00,33.9,26.2,30.23,NNW,333,0.0,8.0,73,0.00,,,0.00,,VWS V15.00,2013-12-30 12:03:00,
2013-12-30 06:08:00,33.9,26.2,30.22,NNW,331,5.0,10.0,73,0.00,,,0.00,0,Wunderground v.1.15,2013-12-30 12:08:00,
2013-12-30 06:13:00,33.9,25.8,30.22,NNW,339,0.0,3.0,72,0.00,,,0.00,0,Wunderground v.1.15,2013-12-30 12:13:00,
2013-12-30 06:15:00,33.9,25.8,30.17,NNW,338,4.0,13.0,72,0.00,,SKC,0.00,0.00,VWS V15.00,2013-12-30 12:15:00,
2013-12-30 06:18:00,33.9,25.8,30.22,North,355,0.0,12.0,72,0.00,,,0.00,0,Wunderground v.1.15,2013-12-30 12:18:00,
2013-12-30 06:23:00,33.9,25.5,30.22,North,350,9.0,16.0,71,0.00,,,0.00,0,Wunderground v.1.15,2013-12-30 12:23:00,
2013-12-30 06:28:00,33.9,25.1,30.22,NNW,337,0.0,16.0,70,0.00,,,0.00,0,Wunderground v.1.15,2013-12-30 12:28:00,
2013-12-30 06:30:00,33.9,25.2,30.18,NNW,338,6.0,21.0,70,0.00,,SKC,0.00,0.00,VWS V15.00,2013-12-30 12:30:00,
2013-12-30 06:33:00,33.9,24.8,30.23,NNW,331,4.0,10.0,69,0.00,,,0.00,0,Wunderground v.1.15,2013-12-30 12:33:00,
2013-12-30 06:38:00,33.9,24.8,30.23,NNW,343,0.0,10.0,69,0.00,,,0.00,0,Wunderground v.1.15,2013-12-30 12:38:00,
2013-12-30 06:43:00,33.9,24.8,30.23,NNW,339,7.0,13.0,69,0.00,,,0.00,0,Wunderground v.1.15,2013-12-30 12:43:00,
2013-12-30 06:45:00,33.9,24.8,30.19,NNW,338,4.0,15.0,69,0.00,,SKC,0.00,0.00,VWS V15.00,2013-12-30 12:45:00,
2013-12-30 06:48:00,33.9,24.8,30.24,NNW,343,4.0,13.0,69,0.00,,,0.00,0,Wunderground v.1.15,2013-12-30 12:48:00,
2013-12-30 06:53:00,33.9,24.8,30.24,NNW,337,2.0,7.0,69,0.00,,,0.00,,VWS V15.00,2013-12-30 12:53:00,
2013-12-30 06:58:00,33.9,24.8,30.24,North,360,4.0,8.0,69,0.00,,,0.00,0,Wunderground v.1.15,2013-12-30 12:58:00,
2013-12-30 07:00:00,33.9,24.8,30.20,NNW,338,2.0,12.0,69,0.00,,SKC,0.00,0.00,VWS V15.00,2013-12-30 13:00:00,
2013-12-30 07:03:00,33.8,24.7,30.25,NNW,327,0.0,0.0,69,0.00,,,0.00,,VWS V15.00,2013-12-30 13:03:00,
2013-12-30 07:08:00,33.8,24.7,30.24,NNW,342,4.0,9.0,69,0.00,,,0.00,0,Wunderground v.1.15,2013-12-30 13:08:00,
2013-12-30 07:13:00,33.7,24.6,30.25,NW,321,0.0,7.0,69,0.00,,,0.00,,VWS V15.00,2013-12-30 13:13:00,
2013-12-30 07:15:00,33.8,24.7,30.20,NNW,338,2.0,10.0,69,0.00,,SKC,0.00,0.00,VWS V15.00,2013-12-30 13:15:00,
2013-12-30 07:18:00,33.7,24.6,30.25,WNW,294,0.0,5.0,69,0.00,,,0.00,0,Wunderground v.1.15,2013-12-30 13:18:00,
2013-12-30 07:23:00,33.7,24.6,30.25,NNW,338,0.0,0.0,69,0.00,,,0.00,,VWS V15.00,2013-12-30 13:23:00,
2013-12-30 07:28:00,33.7,24.6,30.25,NNW,342,0.0,0.0,69,0.00,,,0.00,,VWS V15.00,2013-12-30 13:28:00,
2013-12-30 07:30:00,33.7,24.6,30.22,North,0,0.0,9.0,69,0.00,,SKC,0.00,0.00,VWS V15.00,2013-12-30 13:30:00,
2013-12-30 07:33:00,33.6,24.5,30.26,North,355,0.0,2.0,69,0.00,,,0.00,0,Wunderground v.1.15,2013-12-30 13:33:00,
2013-12-30 07:38:00,33.4,24.0,30.26,NNW,338,3.0,10.0,68,0.00,,,0.00,0,Wunderground v.1.15,2013-12-30 13:38:00,
2013-12-30 07:43:00,33.2,23.8,30.26,NNW,344,2.0,8.0,68,0.00,,,0.00,9,Wunderground v.1.15,2013-12-30 13:43:00,
2013-12-30 07:45:00,33.4,24.0,30.22,NNW,338,2.0,13.0,68,0.00,,SKC,0.00,5.00,VWS V15.00,2013-12-30 13:45:00,
2013-12-30 07:48:00,33.1,23.7,30.27,NNW,344,0.0,0.0,68,0.00,,,0.00,,VWS V15.00,2013-12-30 13:48:00,
2013-12-30 07:53:00,32.9,23.5,30.27,NNW,333,0.0,0.0,68,0.00,,,0.00,,VWS V15.00,2013-12-30 13:53:00,
2013-12-30 07:58:00,32.8,23.7,30.26,NNW,348,0.0,1.0,69,0.00,,,0.00,25,Wunderground v.1.15,2013-12-30 13:58:00,
2013-12-30 08:00:00,32.9,23.5,30.23,NNW,338,0.0,0.0,68,0.00,,SKC,0.00,21.00,VWS V15.00,2013-12-30 14:00:00,
2013-12-30 08:03:00,32.7,23.3,30.28,North,355,0.0,0.0,68,0.00,,,0.00,30,Wunderground v.1.15,2013-12-30 14:03:00,
2013-12-30 08:08:00,32.6,23.6,30.28,North,350,0.0,4.0,69,0.00,,,0.00,35,Wunderground v.1.15,2013-12-30 14:08:00,
2013-12-30 08:13:00,32.5,23.5,30.28,NNW,341,0.0,6.0,69,0.00,,,0.00,40,Wunderground v.1.15,2013-12-30 14:13:00,
2013-12-30 08:15:00,32.6,23.6,30.24,NNW,338,0.0,7.0,69,0.00,,SKC,0.00,37.00,VWS V15.00,2013-12-30 14:15:00,
2013-12-30 08:18:00,32.5,23.5,30.29,NNW,340,0.0,0.0,69,0.00,,,0.00,,VWS V15.00,2013-12-30 14:18:00,
2013-12-30 08:23:00,32.5,23.5,30.29,NNW,342,0.0,0.0,69,0.00,,,0.00,,VWS V15.00,2013-12-30 14:23:00,
2013-12-30 08:28:00,32.4,23.4,30.29,NNW,336,1.0,9.0,69,0.00,,,0.00,63,Wunderground v.1.15,2013-12-30 14:28:00,
2013-12-30 08:30:00,32.5,23.5,30.25,NNW,338,1.0,9.0,69,0.00,,SKC,0.00,57.00,VWS V15.00,2013-12-30 14:30:00,
2013-12-30 08:33:00,32.4,23.4,30.30,NNW,329,0.0,0.0,69,0.00,,,0.00,,VWS V15.00,2013-12-30 14:33:00,
2013-12-30 08:38:00,32.5,23.8,30.30,NNW,332,0.0,4.0,70,0.00,,,0.00,81,Wunderground v.1.15,2013-12-30 14:38:00,
2013-12-30 08:43:00,32.5,23.8,30.30,NNW,332,0.0,0.0,70,0.00,,,0.00,77,Wunderground v.1.15,2013-12-30 14:43:00,
2013-12-30 08:45:00,32.5,23.8,30.27,NNW,338,0.0,0.0,70,0.00,,SKC,0.00,78.00,VWS V15.00,2013-12-30 14:45:00,
2013-12-30 08:48:00,32.6,23.9,30.32,NNW,332,0.0,0.0,70,0.00,,,0.00,81,Wunderground v.1.15,2013-12-30 14:48:00,
2013-12-30 08:53:00,32.6,23.9,30.32,NNW,331,0.0,0.0,70,0.00,,,0.00,70,Wunderground v.1.15,2013-12-30 14:53:00,
2013-12-30 08:58:00,32.6,23.9,30.31,NNW,331,0.0,0.0,70,0.00,,,0.00,,VWS V15.00,2013-12-30 14:58:00,
2013-12-30 09:00:00,32.6,23.9,30.27,NW,315,0.0,6.0,70,0.00,,SKC,0.00,76.00,VWS V15.00,2013-12-30 15:00:00,
2013-12-30 09:03:00,32.6,23.9,30.32,NW,318,0.0,2.0,70,0.00,,,0.00,,VWS V15.00,2013-12-30 15:03:00,
2013-12-30 09:08:00,32.6,23.9,30.32,NW,318,0.0,0.0,70,0.00,,,0.00,,VWS V15.00,2013-12-30 15:08:00,
2013-12-30 09:13:00,32.7,24.0,30.32,NNW,328,3.0,6.0,70,0.00,,,0.00,,VWS V15.00,2013-12-30 15:13:00,
2013-12-30 09:15:00,32.6,23.6,30.27,NNW,338,1.0,7.0,69,0.00,,SKC,0.00,98.00,VWS V15.00,2013-12-30 15:15:00,
2013-12-30 09:18:00,32.7,23.6,30.32,NNW,348,0.0,6.0,69,0.00,,,0.00,118,Wunderground v.1.15,2013-12-30 15:18:00,
2013-12-30 09:23:00,32.8,24.1,30.32,NNE,26,8.0,8.0,70,0.00,,,0.00,121,Wunderground v.1.15,2013-12-30 15:23:00,
2013-12-30 09:28:00,32.8,23.7,30.32,North,350,6.0,8.0,69,0.00,,,0.00,114,Wunderground v.1.15,2013-12-30 15:28:00,
2013-12-30 09:30:00,32.8,23.4,30.27,NNW,338,2.0,11.0,68,0.00,,SKC,0.00,118.00,VWS V15.00,2013-12-30 15:30:00,
2013-12-30 09:33:00,32.8,23.4,30.32,NNW,345,6.0,10.0,68,0.00,,,0.00,109,Wunderground v.1.15,2013-12-30 15:33:00,
2013-12-30 09:38:00,32.9,23.5,30.32,NNW,342,6.0,7.0,68,0.00,,,0.00,,VWS V15.00,2013-12-30 15:38:00,
2013-12-30 09:43:00,32.9,23.5,30.32,NNW,330,0.0,4.0,68,0.00,,,0.00,,VWS V15.00,2013-12-30 15:43:00,
2013-12-30 09:45:00,32.9,23.5,30.28,NNW,338,1.0,11.0,68,0.00,,SKC,0.00,121.00,VWS V15.00,2013-12-30 15:45:00,
2013-12-30 09:48:00,33.0,23.6,30.33,North,349,0.0,7.0,68,0.00,,,0.00,135,Wunderground v.1.15,2013-12-30 15:48:00,
2013-12-30 09:53:00,33.1,23.7,30.33,NNW,329,0.0,0.0,68,0.00,,,0.00,,VWS V15.00,2013-12-30 15:53:00,
2013-12-30 09:58:00,33.2,23.8,30.33,NNW,330,0.0,0.0,68,0.00,,,0.00,,VWS V15.00,2013-12-30 15:58:00,
2013-12-30 10:00:00,33.1,23.7,30.28,NNW,338,0.0,6.0,68,0.00,,SKC,0.00,142.00,VWS V15.00,2013-12-30 16:00:00,
2013-12-30 10:03:00,33.3,23.9,30.34,North,355,0.0,0.0,68,0.00,,,0.00,139,Wunderground v.1.15,2013-12-30 16:03:00,
2013-12-30 10:08:00,33.5,24.1,30.34,North,360,0.0,0.0,68,0.00,,,0.00,142,Wunderground v.1.15,2013-12-30 16:08:00,
2013-12-30 10:13:00,33.6,23.8,30.34,North,360,0.0,0.0,67,0.00,,,0.00,163,Wunderground v.1.15,2013-12-30 16:13:00,
2013-12-30 10:15:00,33.5,23.7,30.30,NNW,338,0.0,0.0,67,0.00,,SKC,0.00,150.00,VWS V15.00,2013-12-30 16:15:00,
2013-12-30 10:18:00,33.8,24.0,30.34,North,360,2.0,5.0,67,0.00,,,0.00,,VWS V15.00,2013-12-30 16:18:00,
2013-12-30 10:23:00,34.2,24.7,30.34,North,349,4.0,5.0,68,0.00,,,0.00,199,Wunderground v.1.15,2013-12-30 16:23:00,
2013-12-30 10:28:00,34.4,24.2,30.34,North,355,0.0,0.0,66,0.00,,,0.00,,VWS V15.00,2013-12-30 16:28:00,
2013-12-30 10:30:00,34.2,24.0,30.28,North,0,1.0,5.0,66,0.00,,SKC,0.00,198.00,VWS V15.00,2013-12-30 16:30:00,
2013-12-30 10:33:00,34.6,24.0,30.34,North,360,0.0,1.0,65,0.00,,,0.00,190,Wunderground v.1.15,2013-12-30 16:33:00,
2013-12-30 10:38:00,34.7,24.1,30.34,NNE,12,0.0,0.0,65,0.00,,,0.00,,VWS V15.00,2013-12-30 16:38:00,
2013-12-30 10:43:00,34.7,24.1,30.34,NNE,13,0.0,0.0,65,0.00,,,0.00,,VWS V15.00,2013-12-30 16:43:00,
2013-12-30 10:45:00,34.7,24.1,30.28,North,0,0.0,0.0,65,0.00,,SKC,0.00,208.00,VWS V15.00,2013-12-30 16:45:00,
2013-12-30 10:48:00,35.1,24.5,30.34,NW,316,0.0,0.0,65,0.00,,,0.00,,VWS V15.00,2013-12-30 16:48:00,
2013-12-30 10:53:00,35.2,24.2,30.34,NNW,346,1.0,8.0,64,0.00,,,0.00,213,Wunderground v.1.15,2013-12-30 16:53:00,
2013-12-30 10:58:00,35.3,24.3,30.34,NNW,348,0.0,8.0,64,0.00,,,0.00,221,Wunderground v.1.15,2013-12-30 16:58:00,
2013-12-30 11:00:00,35.2,23.9,30.28,NW,315,1.0,9.0,63,0.00,,SKC,0.00,216.00,VWS V15.00,2013-12-30 17:00:00,
2013-12-30 11:03:00,35.5,24.2,30.33,North,5,0.0,4.0,63,0.00,,,0.00,,VWS V15.00,2013-12-30 17:03:00,
2013-12-30 11:08:00,35.7,24.4,30.33,North,360,0.0,6.0,63,0.00,,,0.00,,VWS V15.00,2013-12-30 17:08:00,
2013-12-30 11:13:00,36.0,24.2,30.33,NNE,17,3.0,4.0,62,0.00,,,0.00,255,Wunderground v.1.15,2013-12-30 17:13:00,
2013-12-30 11:15:00,35.8,24.1,30.27,North,0,1.0,7.0,62,0.00,,SKC,0.00,253.00,VWS V15.00,2013-12-30 17:15:00,
2013-12-30 11:18:00,36.0,23.8,30.32,North,5,0.0,6.0,61,0.00,,,0.00,260,Wunderground v.1.15,2013-12-30 17:18:00,
2013-12-30 11:23:00,36.1,24.3,30.32,North,360,0.0,2.0,62,0.00,,,0.00,330,Wunderground v.1.15,2013-12-30 17:23:00,
2013-12-30 11:28:00,36.2,24.0,30.32,North,360,0.0,2.0,61,0.00,,,0.00,348,Wunderground v.1.15,2013-12-30 17:28:00,
2013-12-30 11:30:00,36.1,24.0,30.26,North,0,0.0,5.0,61,0.00,,SKC,0.00,326.00,VWS V15.00,2013-12-30 17:30:00,
2013-12-30 11:33:00,36.6,24.8,30.32,North,5,0.0,0.0,62,0.00,,,0.00,,VWS V15.00,2013-12-30 17:33:00,
2013-12-30 11:38:00,37.7,25.1,30.32,North,355,0.0,0.0,60,0.00,,,0.00,,VWS V15.00,2013-12-30 17:38:00,
2013-12-30 11:43:00,37.1,24.5,30.32,North,355,0.0,0.0,60,0.00,,,0.00,,VWS V15.00,2013-12-30 17:43:00,
2013-12-30 11:45:00,37.2,24.2,30.25,North,0,0.0,0.0,59,0.00,,SKC,0.00,356.00,VWS V15.00,2013-12-30 17:45:00,
2013-12-30 11:48:00,36.8,23.8,30.31,North,355,0.0,0.0,59,0.00,,,0.00,,VWS V15.00,2013-12-30 17:48:00,
2013-12-30 11:53:00,37.7,25.1,30.31,North,355,0.0,0.0,60,0.00,,,0.00,360,Wunderground v.1.15,2013-12-30 17:53:00,
2013-12-30 11:58:00,38.1,24.6,30.31,North,351,0.0,0.0,58,0.00,,,0.00,359,Wunderground v.1.15,2013-12-30 17:58:00,
2013-12-30 12:00:00,37.6,24.2,30.24,North,0,0.0,0.0,58,0.00,,SKC,0.00,363.00,VWS V15.00,2013-12-30 18:00:00,
2013-12-30 12:03:00,38.3,24.8,30.29,West,260,0.0,5.0,58,0.00,,,0.00,341,Wunderground v.1.15,2013-12-30 18:03:00,
2013-12-30 12:08:00,39.4,25.0,30.29,West,264,0.0,5.0,56,0.00,,,0.00,345,Wunderground v.1.15,2013-12-30 18:08:00,
2013-12-30 12:13:00,39.1,25.6,30.29,West,264,0.0,0.0,58,0.00,,,0.00,411,Wunderground v.1.15,2013-12-30 18:13:00,
2013-12-30 12:15:00,39.0,25.1,30.23,West,270,0.0,5.0,57,0.00,,SKC,0.00,353.00,VWS V15.00,2013-12-30 18:15:00,
2013-12-30 12:18:00,39.8,25.4,30.29,NNW,336,4.0,8.0,56,0.00,,,0.00,,VWS V15.00,2013-12-30 18:18:00,
2013-12-30 12:23:00,38.8,24.5,30.29,NNW,336,0.0,0.0,56,0.00,,,0.00,,VWS V15.00,2013-12-30 18:23:00,
2013-12-30 12:28:00,39.0,24.6,30.29,NNW,336,0.0,5.0,56,0.00,,,0.00,309,Wunderground v.1.15,2013-12-30 18:28:00,
2013-12-30 12:30:00,39.2,24.8,30.22,NNW,338,1.0,9.0,56,0.00,,SKC,0.00,318.00,VWS V15.00,2013-12-30 18:30:00,
2013-12-30 12:33:00,39.3,24.9,30.28,NNW,347,0.0,5.0,56,0.00,,,0.00,,VWS V15.00,2013-12-30 18:33:00,
2013-12-30 12:38:00,38.9,24.5,30.28,NNW,340,0.0,7.0,56,0.00,,,0.00,279,Wunderground v.1.15,2013-12-30 18:38:00,
2013-12-30 12:43:00,38.7,24.3,30.28,North,360,3.0,7.0,56,0.00,,,0.00,290,Wunderground v.1.15,2013-12-30 18:43:00,
2013-12-30 12:45:00,38.9,24.6,30.22,NNW,338,2.0,9.0,56,0.00,,SKC,0.00,292.00,VWS V15.00,2013-12-30 18:45:00,
2013-12-30 12:48:00,38.7,24.4,30.28,NNW,343,6.0,8.0,56,0.00,,,0.00,,VWS V15.00,2013-12-30 18:48:00,
2013-12-30 12:53:00,39.0,24.6,30.27,NNW,342,0.0,5.0,56,0.00,,,0.00,287,Wunderground v.1.15,2013-12-30 18:53:00,
2013-12-30 12:58:00,39.4,25.0,30.27,NNW,342,0.0,5.0,56,0.00,,,0.00,264,Wunderground v.1.15,2013-12-30 18:58:00,
2013-12-30 13:00:00,39.2,24.8,30.22,NNW,338,1.0,9.0,56,0.00,,SKC,0.00,279.00,VWS V15.00,2013-12-30 19:00:00,
2013-12-30 13:03:00,40.1,25.2,30.27,NNW,342,0.0,0.0,55,0.00,,,0.00,269,Wunderground v.1.15,2013-12-30 19:03:00,
2013-12-30 13:08:00,40.1,24.8,30.27,North,355,0.0,3.0,54,0.00,,,0.00,274,Wunderground v.1.15,2013-12-30 19:08:00,
2013-12-30 13:13:00,40.4,25.5,30.27,North,355,0.0,0.0,55,0.00,,,0.00,278,Wunderground v.1.15,2013-12-30 19:13:00,
2013-12-30 13:15:00,40.2,24.5,30.22,North,0,0.0,3.0,53,0.00,,SKC,0.00,277.00,VWS V15.00,2013-12-30 19:15:00,
2013-12-30 13:18:00,40.2,24.9,30.28,North,355,0.0,0.0,54,0.00,,,0.00,,VWS V15.00,2013-12-30 19:18:00,
2013-12-30 13:23:00,40.9,25.5,30.28,North,355,0.0,0.0,54,0.00,,,0.00,,VWS V15.00,2013-12-30 19:23:00,
2013-12-30 13:28:00,40.7,24.9,30.28,North,355,0.0,0.0,53,0.00,,,0.00,278,Wunderground v.1.15,2013-12-30 19:28:00,
2013-12-30 13:30:00,40.7,24.9,30.21,North,0,0.0,0.0,53,0.00,,SKC,0.00,285.00,VWS V15.00,2013-12-30 19:30:00,
2013-12-30 13:33:00,40.5,25.6,30.27,North,355,0.0,0.0,55,0.00,,,0.00,281,Wunderground v.1.15,2013-12-30 19:33:00,
2013-12-30 13:38:00,41.1,26.1,30.27,North,355,0.0,0.0,55,0.00,,,0.00,369,Wunderground v.1.15,2013-12-30 19:38:00,
2013-12-30 13:43:00,41.2,24.9,30.27,North,355,0.0,0.0,52,0.00,,,0.00,308,Wunderground v.1.15,2013-12-30 19:43:00,
2013-12-30 13:45:00,41.0,25.6,30.19,North,0,0.0,0.0,54,0.00,,SKC,0.00,327.00,VWS V15.00,2013-12-30 19:45:00,
2013-12-30 13:48:00,41.5,25.6,30.25,North,355,0.0,0.0,53,0.00,,,0.00,320,Wunderground v.1.15,2013-12-30 19:48:00,
2013-12-30 13:53:00,41.1,25.7,30.25,North,355,0.0,0.0,54,0.00,,,0.00,348,Wunderground v.1.15,2013-12-30 19:53:00,
2013-12-30 13:58:00,41.6,26.2,30.25,North,355,0.0,0.0,54,0.00,,,0.00,276,Wunderground v.1.15,2013-12-30 19:58:00,
2013-12-30 14:00:00,41.5,25.7,30.18,North,0,0.0,0.0,53,0.00,,SKC,0.00,315.00,VWS V15.00,2013-12-30 20:00:00,
2013-12-30 14:03:00,41.9,26.0,30.25,North,355,0.0,0.0,53,0.00,,,0.00,248,Wunderground v.1.15,2013-12-30 20:03:00,
2013-12-30 14:08:00,42.0,25.7,30.25,North,355,0.0,0.0,52,0.00,,,0.00,,VWS V15.00,2013-12-30 20:08:00,
2013-12-30 14:13:00,42.1,26.2,30.25,North,355,0.0,0.0,53,0.00,,,0.00,,VWS V15.00,2013-12-30 20:13:00,
2013-12-30 14:15:00,42.1,26.2,30.18,North,0,0.0,0.0,53,0.00,,SKC,0.00,254.00,VWS V15.00,2013-12-30 20:15:00,
2013-12-30 14:18:00,42.4,26.0,30.25,North,355,0.0,0.0,52,0.00,,,0.00,234,Wunderground v.1.15,2013-12-30 20:18:00,
2013-12-30 14:23:00,42.8,26.9,30.25,North,351,0.0,0.0,53,0.00,,,0.00,,VWS V15.00,2013-12-30 20:23:00,
2013-12-30 14:28:00,42.6,26.2,30.25,North,355,0.0,0.0,52,0.00,,,0.00,223,Wunderground v.1.15,2013-12-30 20:28:00,
2013-12-30 14:30:00,42.6,26.7,30.19,North,0,0.0,0.0,53,0.00,,SKC,0.00,227.00,VWS V15.00,2013-12-30 20:30:00,
2013-12-30 14:33:00,43.1,27.6,30.25,North,355,0.0,0.0,54,0.00,,,0.00,,VWS V15.00,2013-12-30 20:33:00,
2013-12-30 14:38:00,43.4,27.0,30.25,North,351,0.0,0.0,52,0.00,,,0.00,,VWS V15.00,2013-12-30 20:38:00,
2013-12-30 14:43:00,42.9,26.5,30.25,North,350,0.0,0.0,52,0.00,,,0.00,,VWS V15.00,2013-12-30 20:43:00,
2013-12-30 14:45:00,43.1,27.1,30.18,North,0,0.0,0.0,53,0.00,,SKC,0.00,211.00,VWS V15.00,2013-12-30 20:45:00,
2013-12-30 14:48:00,43.1,27.1,30.25,North,350,0.0,0.0,53,0.00,,,0.00,199,Wunderground v.1.15,2013-12-30 20:48:00,
2013-12-30 14:53:00,43.1,26.7,30.25,North,351,0.0,0.0,52,0.00,,,0.00,,VWS V15.00,2013-12-30 20:53:00,
2013-12-30 14:58:00,42.9,26.9,30.25,North,351,0.0,0.0,53,0.00,,,0.00,213,Wunderground v.1.15,2013-12-30 20:58:00,
2013-12-30 15:00:00,43.1,27.1,30.19,North,0,0.0,0.0,53,0.00,,SKC,0.00,206.00,VWS V15.00,2013-12-30 21:00:00,
2013-12-30 15:03:00,43.3,27.3,30.25,North,350,0.0,0.0,53,0.00,,,0.00,209,Wunderground v.1.15,2013-12-30 21:03:00,
2013-12-30 15:08:00,43.8,27.8,30.26,NNW,342,0.0,0.0,53,0.00,,,0.00,,VWS V15.00,2013-12-30 21:08:00,
2013-12-30 15:13:00,43.9,27.4,30.25,NNW,343,0.0,0.0,52,0.00,,,0.00,195,Wunderground v.1.15,2013-12-30 21:13:00,
2013-12-30 15:15:00,43.7,27.2,30.18,North,0,0.0,0.0,52,0.00,,SKC,0.00,200.00,VWS V15.00,2013-12-30 21:15:00,
2013-12-30 15:18:00,43.6,27.1,30.25,NW,325,0.0,0.0,52,0.00,,,0.00,179,Wunderground v.1.15,2013-12-30 21:18:00,
2013-12-30 15:23:00,43.2,27.2,30.25,NW,325,0.0,0.0,53,0.00,,,0.00,185,Wunderground v.1.15,2013-12-30 21:23:00,
2013-12-30 15:28:00,43.2,27.2,30.25,NW,325,0.0,0.0,53,0.00,,,0.00,,VWS V15.00,2013-12-30 21:28:00,
2013-12-30 15:30:00,43.3,27.8,30.19,North,0,0.0,0.0,54,0.00,,SKC,0.00,167.00,VWS V15.00,2013-12-30 21:30:00,
2013-12-30 15:33:00,43.5,27.5,30.26,NW,325,0.0,0.0,53,0.00,,,0.00,,VWS V15.00,2013-12-30 21:33:00,
2013-12-30 15:38:00,43.6,27.6,30.25,NW,325,0.0,0.0,53,0.00,,,0.00,144,Wunderground v.1.15,2013-12-30 21:38:00,
2013-12-30 15:43:00,43.8,27.3,30.25,NW,325,0.0,0.0,52,0.00,,,0.00,149,Wunderground v.1.15,2013-12-30 21:43:00,
2013-12-30 15:45:00,43.7,27.7,30.18,North,0,0.0,0.0,53,0.00,,SKC,0.00,148.00,VWS V15.00,2013-12-30 21:45:00,
2013-12-30 15:48:00,43.8,27.8,30.25,NW,325,0.0,0.0,53,0.00,,,0.00,,VWS V15.00,2013-12-30 21:48:00,
2013-12-30 15:53:00,43.7,27.2,30.25,NW,325,0.0,0.0,52,0.00,,,0.00,144,Wunderground v.1.15,2013-12-30 21:53:00,
2013-12-30 15:58:00,43.9,27.9,30.25,NW,325,0.0,0.0,53,0.00,,,0.00,127,Wunderground v.1.15,2013-12-30 21:58:00,
2013-12-30 16:00:00,43.8,27.8,30.18,North,0,0.0,0.0,53,0.00,,SKC,0.00,142.00,VWS V15.00,2013-12-30 22:00:00,
2013-12-30 16:03:00,43.8,27.8,30.25,NW,325,0.0,0.0,53,0.00,,,0.00,123,Wunderground v.1.15,2013-12-30 22:03:00,
2013-12-30 16:08:00,43.6,27.6,30.25,NW,325,0.0,0.0,53,0.00,,,0.00,120,Wunderground v.1.15,2013-12-30 22:08:00,
2013-12-30 16:13:00,43.5,27.5,30.25,NW,325,0.0,0.0,53,0.00,,,0.00,104,Wunderground v.1.15,2013-12-30 22:13:00,
2013-12-30 16:15:00,43.6,28.1,30.18,North,0,0.0,0.0,54,0.00,,SKC,0.00,112.00,VWS V15.00,2013-12-30 22:15:00,
2013-12-30 16:18:00,43.6,28.0,30.25,NW,325,0.0,0.0,54,0.00,,,0.00,86,Wunderground v.1.15,2013-12-30 22:18:00,
2013-12-30 16:23:00,43.6,28.0,30.25,NW,323,0.0,0.0,54,0.00,,,0.00,77,Wunderground v.1.15,2013-12-30 22:23:00,
2013-12-30 16:28:00,43.6,28.5,30.26,NW,323,0.0,0.0,55,0.00,,,0.00,,VWS V15.00,2013-12-30 22:28:00,
2013-12-30 16:30:00,43.6,28.5,30.19,North,0,0.0,0.0,55,0.00,,SKC,0.00,76.00,VWS V15.00,2013-12-30 22:30:00,
2013-12-30 16:33:00,43.6,28.9,30.26,NW,323,0.0,0.0,56,0.00,,,0.00,58,Wunderground v.1.15,2013-12-30 22:33:00,
2013-12-30 16:38:00,43.6,29.0,30.26,NW,323,0.0,0.0,56,0.00,,,0.00,,VWS V15.00,2013-12-30 22:38:00,
2013-12-30 16:43:00,43.4,28.7,30.26,NW,324,0.0,0.0,56,0.00,,,0.00,44,Wunderground v.1.15,2013-12-30 22:43:00,
2013-12-30 16:45:00,43.5,28.9,30.19,North,0,0.0,0.0,56,0.00,,SKC,0.00,50.00,VWS V15.00,2013-12-30 22:45:00,
2013-12-30 16:48:00,43.4,28.7,30.26,NW,323,0.0,0.0,56,0.00,,,0.00,40,Wunderground v.1.15,2013-12-30 22:48:00,
2013-12-30 16:53:00,43.3,29.5,30.26,NW,323,0.0,0.0,58,0.00,,,0.00,35,Wunderground v.1.15,2013-12-30 22:53:00,
2013-12-30 16:58:00,43.3,29.5,30.26,NW,323,0.0,0.0,58,0.00,,,0.00,32,Wunderground v.1.15,2013-12-30 22:58:00,
2013-12-30 17:00:00,43.3,29.5,30.19,North,0,0.0,0.0,58,0.00,,SKC,0.00,35.00,VWS V15.00,2013-12-30 23:00:00,
2013-12-30 17:03:00,43.2,29.4,30.26,NW,323,0.0,0.0,58,0.00,,,0.00,,VWS V15.00,2013-12-30 23:03:00,
2013-12-30 17:08:00,43.1,29.3,30.26,NW,323,0.0,0.0,58,0.00,,,0.00,,VWS V15.00,2013-12-30 23:08:00,
2013-12-30 17:13:00,43.0,29.6,30.26,NW,323,0.0,0.0,59,0.00,,,0.00,28,Wunderground v.1.15,2013-12-30 23:13:00,
2013-12-30 17:15:00,43.1,29.8,30.19,North,0,0.0,0.0,59,0.00,,SKC,0.00,30.00,VWS V15.00,2013-12-30 23:15:00,
2013-12-30 17:18:00,42.9,29.5,30.25,NW,323,0.0,0.0,59,0.00,,,0.00,25,Wunderground v.1.15,2013-12-30 23:18:00,
2013-12-30 17:23:00,42.8,29.5,30.25,NW,324,0.0,0.0,59,0.00,,,0.00,19,Wunderground v.1.15,2013-12-30 23:23:00,
2013-12-30 17:28:00,42.7,29.8,30.25,NW,323,0.0,0.0,60,0.00,,,0.00,21,Wunderground v.1.15,2013-12-30 23:28:00,
2013-12-30 17:30:00,42.8,29.9,30.19,North,0,0.0,0.0,60,0.00,,SKC,0.00,19.00,VWS V15.00,2013-12-30 23:30:00,
2013-12-30 17:33:00,42.7,29.8,30.25,NW,323,0.0,0.0,60,0.00,,,0.00,12,Wunderground v.1.15,2013-12-30 23:33:00,
2013-12-30 17:38:00,42.6,29.7,30.25,NW,323,0.0,0.0,60,0.00,,,0.00,5,Wunderground v.1.15,2013-12-30 23:38:00,
2013-12-30 17:43:00,42.5,30.0,30.25,NW,323,0.0,0.0,61,0.00,,,0.00,7,Wunderground v.1.15,2013-12-30 23:43:00,
2013-12-30 17:45:00,42.6,30.5,30.19,North,0,0.0,0.0,62,0.00,,SKC,0.00,6.00,VWS V15.00,2013-12-30 23:45:00,
2013-12-30 17:48:00,42.4,30.3,30.26,NW,323,0.0,0.0,62,0.00,,,0.00,5,Wunderground v.1.15,2013-12-30 23:48:00,
2013-12-30 17:53:00,42.2,30.1,30.27,NW,323,0.0,0.0,62,0.00,,,0.00,,VWS V15.00,2013-12-30 23:53:00,
2013-12-30 17:58:00,42.1,30.0,30.26,NW,323,0.0,0.0,62,0.00,,,0.00,0,Wunderground v.1.15,2013-12-30 23:58:00,
2013-12-30 18:00:00,42.2,30.1,30.21,North,0,0.0,0.0,62,0.00,,SKC,0.00,2.00,VWS V15.00,2013-12-31 00:00:00,
2013-12-30 18:03:00,42.0,29.9,30.27,NW,323,0.0,0.0,62,0.00,,,0.00,,VWS V15.00,2013-12-31 00:03:00,
2013-12-30 18:08:00,41.9,30.2,30.27,NW,324,0.0,0.0,63,0.00,,,0.00,0,Wunderground v.1.15,2013-12-31 00:08:00,
2013-12-30 18:13:00,41.8,30.1,30.27,NW,323,0.0,0.0,63,0.00,,,0.00,0,Wunderground v.1.15,2013-12-31 00:13:00,
2013-12-30 18:15:00,41.9,30.6,30.22,North,0,0.0,0.0,64,0.00,,SKC,0.00,0.00,VWS V15.00,2013-12-31 00:15:00,
2013-12-30 18:18:00,41.7,30.4,30.28,NW,323,0.0,0.0,64,0.00,,,0.00,0,Wunderground v.1.15,2013-12-31 00:18:00,
2013-12-30 18:23:00,41.5,30.6,30.29,NW,324,0.0,0.0,65,0.00,,,0.00,,VWS V15.00,2013-12-31 00:23:00,
2013-12-30 18:28:00,41.3,30.4,30.29,NW,324,0.0,0.0,65,0.00,,,0.00,,VWS V15.00,2013-12-31 00:28:00,
2013-12-30 18:30:00,41.5,30.2,30.23,North,0,0.0,0.0,64,0.00,,SKC,0.00,0.00,VWS V15.00,2013-12-31 00:30:00,
2013-12-30 18:33:00,41.2,29.9,30.29,NW,324,0.0,0.0,64,0.00,,,0.00,0,Wunderground v.1.15,2013-12-31 00:33:00,
2013-12-30 18:38:00,41.2,30.3,30.29,NW,323,0.0,0.0,65,0.00,,,0.00,,VWS V15.00,2013-12-31 00:38:00,
2013-12-30 18:43:00,41.2,29.9,30.29,NW,323,0.0,0.0,64,0.00,,,0.00,0,Wunderground v.1.15,2013-12-31 00:43:00,
2013-12-30 18:45:00,41.2,30.3,30.21,North,0,0.0,0.0,65,0.00,,SKC,0.00,0.00,VWS V15.00,2013-12-31 00:45:00,
2013-12-30 18:48:00,41.1,30.2,30.28,NW,323,0.0,0.0,65,0.00,,,0.00,,VWS V15.00,2013-12-31 00:48:00,
2013-12-30 18:53:00,41.1,30.2,30.28,NW,323,0.0,0.0,65,0.00,,,0.00,,VWS V15.00,2013-12-31 00:53:00,
2013-12-30 18:58:00,41.0,30.5,30.28,NW,324,0.0,0.0,66,0.00,,,0.00,,VWS V15.00,2013-12-31 00:58:00,
2013-12-30 19:00:00,41.1,30.6,30.23,North,0,0.0,0.0,66,0.00,,SKC,0.00,0.00,VWS V15.00,2013-12-31 01:00:00,
2013-12-30 19:03:00,40.9,30.4,30.28,NW,324,0.0,0.0,66,0.00,,,0.00,0,Wunderground v.1.15,2013-12-31 01:03:00,
2013-12-30 19:08:00,40.9,30.8,30.28,NW,323,0.0,0.0,67,0.00,,,0.00,0,Wunderground v.1.15,2013-12-31 01:08:00,
2013-12-30 19:13:00,40.9,31.1,30.28,NW,323,0.0,0.0,68,0.00,,,0.00,0,Wunderground v.1.15,2013-12-31 01:13:00,
2013-12-30 19:15:00,40.9,31.5,30.23,North,0,0.0,0.0,69,0.00,,SKC,0.00,0.00,VWS V15.00,2013-12-31 01:15:00,
2013-12-30 19:18:00,40.9,31.5,30.29,NW,323,0.0,0.0,69,0.00,,,0.00,0,Wunderground v.1.15,2013-12-31 01:18:00,
2013-12-30 19:23:00,40.8,31.8,30.29,NW,323,0.0,0.0,70,0.00,,,0.00,,VWS V15.00,2013-12-31 01:23:00,
2013-12-30 19:28:00,40.7,32.0,30.29,NW,324,0.0,0.0,71,0.00,,,0.00,,VWS V15.00,2013-12-31 01:28:00,
2013-12-30 19:30:00,40.8,32.1,30.25,North,0,0.0,0.0,71,0.00,,SKC,0.00,0.00,VWS V15.00,2013-12-31 01:30:00,
2013-12-30 19:33:00,40.6,32.0,30.31,NW,323,0.0,0.0,71,0.00,,,0.00,,VWS V15.00,2013-12-31 01:33:00,
2013-12-30 19:38:00,40.5,32.2,30.31,NW,324,0.0,0.0,72,0.00,,,0.00,0,Wunderground v.1.15,2013-12-31 01:38:00,
2013-12-30 19:43:00,40.4,31.7,30.31,NW,323,0.0,0.0,71,0.00,,,0.00,0,Wunderground v.1.15,2013-12-31 01:43:00,
2013-12-30 19:45:00,40.4,32.1,30.25,North,0,0.0,0.0,72,0.00,,SKC,0.00,0.00,VWS V15.00,2013-12-31 01:45:00,
2013-12-30 19:48:00,40.3,32.0,30.31,NW,324,0.0,0.0,72,0.00,,,0.00,,VWS V15.00,2013-12-31 01:48:00,
2013-12-30 19:53:00,40.3,32.0,30.31,NW,323,0.0,0.0,72,0.00,,,0.00,0,Wunderground v.1.15,2013-12-31 01:53:00,
2013-12-30 19:58:00,40.2,32.2,30.31,NW,323,0.0,0.0,73,0.00,,,0.00,,VWS V15.00,2013-12-31 01:58:00,
2013-12-30 20:00:00,40.3,32.3,30.25,North,0,0.0,0.0,73,0.00,,SKC,0.00,0.00,VWS V15.00,2013-12-31 02:00:00,
2013-12-30 20:03:00,40.1,32.2,30.31,NW,323,0.0,0.0,73,0.00,,,0.00,,VWS V15.00,2013-12-31 02:03:00,
2013-12-30 20:08:00,40.1,32.1,30.31,NW,323,0.0,0.0,73,0.00,,,0.00,0,Wunderground v.1.15,2013-12-31 02:08:00,
2013-12-30 20:13:00,40.1,32.1,30.31,NW,324,0.0,0.0,73,0.00,,,0.00,0,Wunderground v.1.15,2013-12-31 02:13:00,
2013-12-30 20:15:00,40.1,32.2,30.26,North,0,0.0,0.0,73,0.00,,SKC,0.00,0.00,VWS V15.00,2013-12-31 02:15:00,
2013-12-30 20:18:00,40.0,32.0,30.31,NW,324,0.0,0.0,73,0.00,,,0.00,0,Wunderground v.1.15,2013-12-31 02:18:00,
2013-12-30 20:23:00,40.0,32.0,30.31,NW,323,0.0,0.0,73,0.00,,,0.00,0,Wunderground v.1.15,2013-12-31 02:23:00,
2013-12-30 20:28:00,39.9,32.3,30.32,NW,323,0.0,0.0,74,0.00,,,0.00,,VWS V15.00,2013-12-31 02:28:00,
2013-12-30 20:30:00,40.0,32.4,30.26,North,0,0.0,0.0,74,0.00,,SKC,0.00,0.00,VWS V15.00,2013-12-31 02:30:00,
2013-12-30 20:33:00,39.8,32.2,30.32,NW,323,0.0,0.0,74,0.00,,,0.00,0,Wunderground v.1.15,2013-12-31 02:33:00,
2013-12-30 20:38:00,39.7,32.1,30.32,NW,323,0.0,0.0,74,0.00,,,0.00,0,Wunderground v.1.15,2013-12-31 02:38:00,
2013-12-30 20:43:00,39.7,32.4,30.32,NW,324,0.0,0.0,75,0.00,,,0.00,,VWS V15.00,2013-12-31 02:43:00,
2013-12-30 20:45:00,39.7,32.4,30.27,North,0,0.0,0.0,75,0.00,,SKC,0.00,0.00,VWS V15.00,2013-12-31 02:45:00,
2013-12-30 20:48:00,39.5,32.2,30.33,NW,323,0.0,0.0,75,0.00,,,0.00,0,Wunderground v.1.15,2013-12-31 02:48:00,
2013-12-30 20:53:00,39.4,32.2,30.33,NW,324,0.0,0.0,75,0.00,,,0.00,,VWS V15.00,2013-12-31 02:53:00,
2013-12-30 20:58:00,39.3,31.7,30.33,NW,324,0.0,0.0,74,0.00,,,0.00,0,Wunderground v.1.15,2013-12-31 02:58:00,
2013-12-30 21:00:00,39.4,31.5,30.27,North,0,0.0,0.0,73,0.00,,SKC,0.00,0.00,VWS V15.00,2013-12-31 03:00:00,
2013-12-30 21:03:00,39.3,31.4,30.33,NW,324,0.0,0.0,73,0.00,,,0.00,0,Wunderground v.1.15,2013-12-31 03:03:00,
2013-12-30 21:08:00,39.2,31.0,30.33,NW,323,0.0,0.0,72,0.00,,,0.00,,VWS V15.00,2013-12-31 03:08:00,
2013-12-30 21:13:00,39.3,31.0,30.33,NW,324,0.0,0.0,72,0.00,,,0.00,0,Wunderground v.1.15,2013-12-31 03:13:00,
2013-12-30 21:15:00,39.3,31.0,30.28,North,0,0.0,0.0,72,0.00,,SKC,0.00,0.00,VWS V15.00,2013-12-31 03:15:00,
2013-12-30 21:18:00,39.3,31.0,30.34,NW,323,0.0,0.0,72,0.00,,,0.00,0,Wunderground v.1.15,2013-12-31 03:18:00,
2013-12-30 21:23:00,39.4,31.1,30.34,NW,324,0.0,0.0,72,0.00,,,0.00,,VWS V15.00,2013-12-31 03:23:00,
2013-12-30 21:28:00,39.5,31.6,30.34,NW,323,0.0,0.0,73,0.00,,,0.00,0,Wunderground v.1.15,2013-12-31 03:28:00,
2013-12-30 21:30:00,39.4,31.8,30.28,North,0,0.0,0.0,74,0.00,,SKC,0.00,0.00,VWS V15.00,2013-12-31 03:30:00,
2013-12-30 21:33:00,39.5,31.9,30.34,NW,324,0.0,0.0,74,0.00,,,0.00,0,Wunderground v.1.15,2013-12-31 03:33:00,
2013-12-30 21:38:00,39.4,31.8,30.34,NW,323,0.0,0.0,74,0.00,,,0.00,,VWS V15.00,2013-12-31 03:38:00,
2013-12-30 21:43:00,39.3,31.7,30.34,NW,323,0.0,0.0,74,0.00,,,0.00,,VWS V15.00,2013-12-31 03:43:00,
2013-12-30 21:45:00,39.4,31.8,30.30,North,0,0.0,0.0,74,0.00,,SKC,0.00,0.00,VWS V15.00,2013-12-31 03:45:00,
2013-12-30 21:48:00,39.2,31.6,30.36,NW,323,0.0,0.0,74,0.00,,,0.00,,VWS V15.00,2013-12-31 03:48:00,
2013-12-30 21:53:00,39.1,31.5,30.36,NW,323,0.0,0.0,74,0.00,,,0.00,,VWS V15.00,2013-12-31 03:53:00,
2013-12-30 21:58:00,39.1,31.9,30.36,NW,323,0.0,0.0,75,0.00,,,0.00,,VWS V15.00,2013-12-31 03:58:00,
2013-12-30 22:00:00,39.1,32.2,30.31,North,0,0.0,0.0,76,0.00,,SKC,0.00,0.00,VWS V15.00,2013-12-31 04:00:00,
2013-12-30 22:03:00,39.0,32.1,30.36,NW,324,0.0,0.0,76,0.00,,,0.00,0,Wunderground v.1.15,2013-12-31 04:03:00,
2013-12-30 22:08:00,38.9,31.6,30.36,NW,323,0.0,0.0,75,0.00,,,0.00,0,Wunderground v.1.15,2013-12-31 04:08:00,
2013-12-30 22:13:00,38.9,31.6,30.36,NW,324,0.0,0.0,75,0.00,,,0.00,0,Wunderground v.1.15,2013-12-31 04:13:00,
2013-12-30 22:15:00,38.9,31.7,30.29,North,0,0.0,0.0,75,0.00,,SKC,0.00,0.00,VWS V15.00,2013-12-31 04:15:00,
2013-12-30 22:18:00,38.9,31.3,30.35,NW,324,0.0,0.0,74,0.00,,,0.00,0,Wunderground v.1.15,2013-12-31 04:18:00,
2013-12-30 22:23:00,38.9,31.0,30.35,NW,323,0.0,0.0,73,0.00,,,0.00,0,Wunderground v.1.15,2013-12-31 04:23:00,
2013-12-30 22:28:00,38.9,31.0,30.35,NW,323,0.0,0.0,73,0.00,,,0.00,0,Wunderground v.1.15,2013-12-31 04:28:00,
2013-12-30 22:30:00,38.9,31.0,30.31,North,0,0.0,0.0,73,0.00,,SKC,0.00,0.00,VWS V15.00,2013-12-31 04:30:00,
2013-12-30 22:33:00,39.0,31.1,30.36,NW,323,0.0,0.0,73,0.00,,,0.00,0,Wunderground v.1.15,2013-12-31 04:33:00,
2013-12-30 22:38:00,38.8,31.2,30.36,NW,324,0.0,0.0,74,0.00,,,0.00,,VWS V15.00,2013-12-31 04:38:00,
2013-12-30 22:43:00,38.7,31.5,30.36,NW,324,0.0,0.0,75,0.00,,,0.00,,VWS V15.00,2013-12-31 04:43:00,
2013-12-30 22:44:00,38.7,31.5,30.36,NW,324,0.0,0.0,75,0.00,,,0.00,,VWS V15.00,2013-12-31 04:44:00,
2013-12-30 22:45:00,38.8,31.6,30.31,North,0,0.0,0.0,75,0.00,,SKC,0.00,0.00,VWS V15.00,2013-12-31 04:45:00,
2013-12-30 22:49:00,38.6,31.7,30.37,NW,323,0.0,0.0,76,0.00,,,0.00,0,Wunderground v.1.15,2013-12-31 04:49:00,
2013-12-30 22:54:00,38.5,31.3,30.37,NW,324,0.0,0.0,75,0.00,,,0.00,0,Wunderground v.1.15,2013-12-31 04:54:00,
2013-12-30 22:59:00,38.4,31.2,30.37,NW,324,0.0,0.0,75,0.00,,,0.00,,VWS V15.00,2013-12-31 04:59:00,
2013-12-30 23:00:00,38.5,31.3,30.30,North,0,0.0,0.0,75,0.00,,SKC,0.00,0.00,VWS V15.00,2013-12-31 05:00:00,
2013-12-30 23:01:00,38.4,31.2,30.36,NW,324,0.0,0.0,75,0.00,,,0.00,0,Wunderground v.1.15,2013-12-31 05:01:00,
2013-12-30 23:02:00,38.4,31.2,30.35,NW,324,0.0,0.0,75,0.00,,,0.00,,VWS V15.00,2013-12-31 05:02:00,
2013-12-30 23:07:00,38.4,31.2,30.36,NW,324,0.0,0.0,75,0.00,,,0.00,0,Wunderground v.1.15,2013-12-31 05:07:00,
2013-12-30 23:12:00,38.4,31.2,30.35,NW,323,0.0,0.0,75,0.00,,,0.00,,VWS V15.00,2013-12-31 05:12:00,
2013-12-30 23:15:00,38.4,31.2,30.30,North,0,0.0,0.0,75,0.00,,SKC,0.00,0.00,VWS V15.00,2013-12-31 05:15:00,
2013-12-30 23:17:00,38.4,31.2,30.35,NW,323,0.0,0.0,75,0.00,,,0.00,,VWS V15.00,2013-12-31 05:17:00,
2013-12-30 23:22:00,38.4,31.2,30.36,NW,324,0.0,0.0,75,0.00,,,0.00,0,Wunderground v.1.15,2013-12-31 05:22:00,
2013-12-30 23:27:00,38.3,31.1,30.35,NW,323,0.0,0.0,75,0.00,,,0.00,,VWS V15.00,2013-12-31 05:27:00,
2013-12-30 23:30:00,38.4,31.5,30.31,North,0,0.0,0.0,76,0.00,,SKC,0.00,0.00,VWS V15.00,2013-12-31 05:30:00,
2013-12-30 23:32:00,38.2,31.3,30.36,NW,324,0.0,0.0,76,0.00,,,0.00,0,Wunderground v.1.15,2013-12-31 05:32:00,
2013-12-30 23:37:00,38.0,31.1,30.36,NW,323,0.0,0.0,76,0.00,,,0.00,0,Wunderground v.1.15,2013-12-31 05:37:00,
2013-12-30 23:42:00,37.9,31.0,30.37,NW,323,0.0,0.0,76,0.00,,,0.00,,VWS V15.00,2013-12-31 05:42:00,
2013-12-30 23:45:00,38.0,31.4,30.31,North,0,0.0,0.0,77,0.00,,SKC,0.00,0.00,VWS V15.00,2013-12-31 05:45:00,
2013-12-30 23:47:00,37.9,31.4,30.37,NW,324,0.0,0.0,77,0.00,,,0.00,,VWS V15.00,2013-12-31 05:47:00,
2013-12-30 23:52:00,38.0,31.8,30.37,NW,323,0.0,0.0,78,0.00,,,0.00,,VWS V15.00,2013-12-31 05:52:00,
2013-12-30 23:57:00,38.0,31.7,30.37,NW,323,0.0,0.0,78,0.00,,,0.00,0,Wunderground v.1.15,2013-12-31 05:57:00,